Time,TemperatureF,DewpointF,PressureIn,WindDirection,WindDirectionDegrees,WindSpeedMPH,WindSpeedGustMPH,Humidity,HourlyPrecipIn,Conditions,Clouds,dailyrainin,SoftwareType,DateUTC
2013-08-02 00:01:00,71.4,64.6,29.89,NW,305,1.0,9.0,79,0.00,,,0.32,WUHU216DAVISVP2,2013-08-02 05:01:00,
2013-08-02 00:06:00,71.4,65.0,29.90,West,277,4.0,9.0,80,0.00,,,0.32,WUHU216DAVISVP2,2013-08-02 05:06:00,
2013-08-02 00:11:00,71.5,65.0,29.90,WSW,248,6.0,8.0,80,0.00,,,0.32,WUHU216DAVISVP2,2013-08-02 05:11:00,
2013-08-02 00:16:00,71.5,65.1,29.90,West,262,0.0,8.0,80,0.00,,,0.32,WUHU216DAVISVP2,2013-08-02 05:16:00,
2013-08-02 00:21:00,71.4,65.0,29.90,SE,141,6.0,10.0,80,0.00,,,0.32,WUHU216DAVISVP2,2013-08-02 05:21:00,
2013-08-02 00:26:00,71.4,65.0,29.89,WSW,253,1.0,10.0,80,0.00,,,0.32,WUHU216DAVISVP2,2013-08-02 05:26:00,
2013-08-02 00:31:00,71.3,64.9,29.89,WSW,255,3.0,9.0,80,0.00,,,0.00,WUHU216DAVISVP2,2013-08-02 05:31:00,
2013-08-02 00:36:00,71.4,65.0,29.89,SW,214,2.0,9.0,80,0.00,,,0.00,WUHU216DAVISVP2,2013-08-02 05:36:00,
2013-08-02 00:41:00,71.4,64.6,29.89,SE,126,0.0,8.0,79,0.00,,,0.00,WUHU216DAVISVP2,2013-08-02 05:41:00,
2013-08-02 00:46:00,71.4,64.6,29.89,SSE,162,4.0,8.0,79,0.00,,,0.00,WUHU216DAVISVP2,2013-08-02 05:46:00,
2013-08-02 00:51:00,71.5,64.7,29.89,SSE,160,2.0,8.0,79,0.00,,,0.00,WUHU216DAVISVP2,2013-08-02 05:51:00,
2013-08-02 00:56:00,71.5,64.4,29.89,South,186,5.0,8.0,78,0.00,,,0.00,WUHU216DAVISVP2,2013-08-02 05:56:00,
2013-08-02 01:01:00,71.6,64.1,29.89,SSW,212,5.0,10.0,77,0.00,,,0.00,WUHU216DAVISVP2,2013-08-02 06:01:00,
2013-08-02 01:06:00,71.7,64.2,29.89,South,189,1.0,10.0,77,0.00,,,0.00,WUHU216DAVISVP2,2013-08-02 06:06:00,
2013-08-02 01:11:00,71.8,64.3,29.90,South,186,1.0,9.0,77,0.00,,,0.00,WUHU216DAVISVP2,2013-08-02 06:11:00,
2013-08-02 01:16:00,71.7,63.9,29.90,WSW,245,3.0,7.0,76,0.00,,,0.00,WUHU216DAVISVP2,2013-08-02 06:16:00,
2013-08-02 01:21:00,71.8,64.0,29.90,WSW,239,6.0,12.0,76,0.00,,,0.00,WUHU216DAVISVP2,2013-08-02 06:21:00,
2013-08-02 01:26:00,71.9,64.1,29.90,WSW,254,5.0,12.0,76,0.00,,,0.00,WUHU216DAVISVP2,2013-08-02 06:26:00,
2013-08-02 01:31:00,71.8,64.3,29.90,West,270,4.0,12.0,77,0.00,,,0.00,WUHU216DAVISVP2,2013-08-02 06:31:00,
2013-08-02 01:36:00,71.7,64.1,29.91,WSW,255,5.0,11.0,77,0.00,,,0.00,WUHU216DAVISVP2,2013-08-02 06:36:00,
2013-08-02 01:40:00,71.6,64.5,29.91,West,281,5.0,11.0,78,0.00,,,0.00,WUHU216DAVISVP2,2013-08-02 06:40:00,
2013-08-02 01:45:00,71.6,64.5,29.92,ESE,115,1.0,11.0,78,0.00,,,0.00,WUHU216DAVISVP2,2013-08-02 06:45:00,
2013-08-02 01:51:00,71.6,64.5,29.92,SSW,213,7.0,11.0,78,0.00,,,0.00,WUHU216DAVISVP2,2013-08-02 06:51:00,
2013-08-02 01:56:00,71.5,64.7,29.92,WSW,239,3.0,11.0,79,0.00,,,0.00,WUHU216DAVISVP2,2013-08-02 06:56:00,
2013-08-02 02:01:00,71.3,64.5,29.93,SW,225,5.0,10.0,79,0.00,,,0.00,WUHU216DAVISVP2,2013-08-02 07:01:00,
2013-08-02 02:06:00,71.2,64.5,29.93,WSW,248,7.0,10.0,79,0.00,,,0.00,WUHU216DAVISVP2,2013-08-02 07:06:00,
2013-08-02 02:11:00,71.1,64.4,29.93,SSW,207,5.0,9.0,79,0.00,,,0.00,WUHU216DAVISVP2,2013-08-02 07:11:00,
2013-08-02 02:16:00,71.1,64.4,29.93,WSW,238,6.0,9.0,79,0.00,,,0.00,WUHU216DAVISVP2,2013-08-02 07:16:00,
2013-08-02 02:21:00,71.0,64.6,29.92,WNW,283,3.0,9.0,80,0.00,,,0.00,WUHU216DAVISVP2,2013-08-02 07:21:00,
2013-08-02 02:25:00,70.9,64.4,29.91,West,274,3.0,9.0,80,0.00,,,0.00,WUHU216DAVISVP2,2013-08-02 07:25:00,
2013-08-02 02:30:00,70.8,64.4,29.91,WNW,291,4.0,11.0,80,0.00,,,0.00,WUHU216DAVISVP2,2013-08-02 07:30:00,
2013-08-02 02:35:00,70.8,64.4,29.92,West,260,3.0,11.0,80,0.00,,,0.00,WUHU216DAVISVP2,2013-08-02 07:35:00,
2013-08-02 02:40:00,70.7,64.3,29.92,WSW,237,5.0,12.0,80,0.00,,,0.00,WUHU216DAVISVP2,2013-08-02 07:40:00,
2013-08-02 02:45:00,70.6,64.6,29.93,WSW,243,4.0,12.0,81,0.00,,,0.00,WUHU216DAVISVP2,2013-08-02 07:45:00,
2013-08-02 02:50:00,70.4,64.3,29.93,SW,225,4.0,12.0,81,0.00,,,0.00,WUHU216DAVISVP2,2013-08-02 07:50:00,
2013-08-02 02:55:00,70.2,64.5,29.92,West,273,3.0,12.0,82,0.00,,,0.00,WUHU216DAVISVP2,2013-08-02 07:55:00,
2013-08-02 03:01:00,70.0,64.6,29.92,WSW,245,3.0,13.0,83,0.00,,,0.00,WUHU216DAVISVP2,2013-08-02 08:01:00,
2013-08-02 03:06:00,69.8,64.5,29.92,SSW,211,7.0,13.0,83,0.00,,,0.00,WUHU216DAVISVP2,2013-08-02 08:06:00,
2013-08-02 03:12:00,69.7,64.6,29.92,WSW,238,2.0,13.0,84,0.00,,,0.00,WUHU216DAVISVP2,2013-08-02 08:12:00,
2013-08-02 03:16:00,69.6,64.9,29.92,SSW,200,3.0,13.0,85,0.00,,,0.00,WUHU216DAVISVP2,2013-08-02 08:16:00,
2013-08-02 03:22:00,69.5,64.8,29.91,SW,222,3.0,13.0,85,0.00,,,0.00,WUHU216DAVISVP2,2013-08-02 08:22:00,
2013-08-02 03:27:00,69.3,64.6,29.91,SW,235,3.0,13.0,85,0.00,,,0.00,WUHU216DAVISVP2,2013-08-02 08:27:00,
2013-08-02 03:32:00,69.2,64.8,29.90,WSW,257,7.0,13.0,86,0.00,,,0.00,WUHU216DAVISVP2,2013-08-02 08:32:00,
2013-08-02 03:37:00,69.1,64.7,29.90,WSW,255,3.0,9.0,86,0.00,,,0.00,WUHU216DAVISVP2,2013-08-02 08:37:00,
2013-08-02 03:42:00,69.0,64.7,29.90,West,259,2.0,9.0,86,0.00,,,0.00,WUHU216DAVISVP2,2013-08-02 08:42:00,
2013-08-02 03:47:00,68.9,64.9,29.89,WSW,242,3.0,9.0,87,0.00,,,0.00,WUHU216DAVISVP2,2013-08-02 08:47:00,
2013-08-02 03:52:00,68.9,64.9,29.87,WSW,242,4.0,9.0,87,0.00,,,0.00,WUHU216DAVISVP2,2013-08-02 08:52:00,
2013-08-02 03:57:00,68.8,64.8,29.86,WSW,255,4.0,9.0,87,0.00,,,0.00,WUHU216DAVISVP2,2013-08-02 08:57:00,
2013-08-02 04:02:00,68.8,65.1,29.84,WSW,242,6.0,11.0,88,0.00,,,0.00,WUHU216DAVISVP2,2013-08-02 09:02:00,
2013-08-02 04:07:00,68.8,65.1,29.83,SW,218,4.0,11.0,88,0.00,,,0.00,WUHU216DAVISVP2,2013-08-02 09:07:00,
2013-08-02 04:12:00,68.8,65.1,29.83,SW,225,0.0,10.0,88,0.00,,,0.00,WUHU216DAVISVP2,2013-08-02 09:12:00,
2013-08-02 04:17:00,68.8,65.1,29.85,North,359,2.0,10.0,88,0.00,,,0.00,WUHU216DAVISVP2,2013-08-02 09:17:00,
2013-08-02 04:22:00,68.9,65.2,29.86,NNE,31,3.0,8.0,88,0.00,,,0.00,WUHU216DAVISVP2,2013-08-02 09:22:00,
2013-08-02 04:27:00,69.0,65.3,29.88,NE,37,5.0,7.0,88,0.00,,,0.00,WUHU216DAVISVP2,2013-08-02 09:27:00,
2013-08-02 04:32:00,69.1,65.4,29.89,NE,39,2.0,7.0,88,0.00,,,0.00,WUHU216DAVISVP2,2013-08-02 09:32:00,
2013-08-02 04:37:00,69.2,65.5,29.88,North,8,1.0,7.0,88,0.00,,,0.00,WUHU216DAVISVP2,2013-08-02 09:37:00,
2013-08-02 04:42:00,69.2,65.5,29.89,NNE,33,1.0,7.0,88,0.00,,,0.00,WUHU216DAVISVP2,2013-08-02 09:42:00,
2013-08-02 04:50:00,69.3,65.6,29.88,NNE,26,0.0,6.0,88,0.00,,,0.00,WUHU216DAVISVP2,2013-08-02 09:50:00,
2013-08-02 04:55:00,69.4,65.7,29.90,SW,222,0.0,2.0,88,0.00,,,0.00,WUHU216DAVISVP2,2013-08-02 09:55:00,
2013-08-02 05:00:00,69.3,65.6,29.89,SW,222,0.0,2.0,88,0.00,,,0.00,WUHU216DAVISVP2,2013-08-02 10:00:00,
2013-08-02 05:05:00,69.3,65.6,29.89,West,276,0.0,2.0,88,0.00,,,0.00,WUHU216DAVISVP2,2013-08-02 10:05:00,
2013-08-02 05:10:00,69.4,65.7,29.90,WNW,297,1.0,2.0,88,0.00,,,0.00,WUHU216DAVISVP2,2013-08-02 10:10:00,
2013-08-02 05:15:00,69.3,65.6,29.90,WNW,297,0.0,2.0,88,0.00,,,0.00,WUHU216DAVISVP2,2013-08-02 10:15:00,
2013-08-02 05:20:00,69.3,65.6,29.90,NE,44,0.0,2.0,88,0.00,,,0.00,WUHU216DAVISVP2,2013-08-02 10:20:00,
2013-08-02 05:25:00,69.3,65.6,29.90,NE,44,0.0,2.0,88,0.00,,,0.00,WUHU216DAVISVP2,2013-08-02 10:25:00,
2013-08-02 05:30:00,69.2,65.5,29.90,NE,44,0.0,2.0,88,0.00,,,0.00,WUHU216DAVISVP2,2013-08-02 10:30:00,
2013-08-02 05:35:00,69.0,65.3,29.90,NE,44,0.0,2.0,88,0.00,,,0.00,WUHU216DAVISVP2,2013-08-02 10:35:00,
2013-08-02 05:40:00,69.0,65.6,29.89,NE,44,0.0,2.0,89,0.00,,,0.00,WUHU216DAVISVP2,2013-08-02 10:40:00,
2013-08-02 05:45:00,68.8,65.1,29.89,NE,44,0.0,1.0,88,0.00,,,0.00,WUHU216DAVISVP2,2013-08-02 10:45:00,
2013-08-02 05:50:00,68.6,65.2,29.89,ENE,58,0.0,0.0,89,0.00,,,0.00,WUHU216DAVISVP2,2013-08-02 10:50:00,
2013-08-02 05:55:00,68.4,65.3,29.89,East,86,0.0,2.0,90,0.00,,,0.00,WUHU216DAVISVP2,2013-08-02 10:55:00,
2013-08-02 06:00:00,68.3,64.9,29.89,East,86,0.0,2.0,89,0.00,,,0.00,WUHU216DAVISVP2,2013-08-02 11:00:00,
2013-08-02 06:05:00,68.1,65.0,29.90,SSE,162,0.0,2.0,90,0.00,,,0.00,WUHU216DAVISVP2,2013-08-02 11:05:00,
2013-08-02 06:10:00,67.9,64.8,29.90,SSE,162,0.0,2.0,90,0.00,,,0.00,WUHU216DAVISVP2,2013-08-02 11:10:00,
2013-08-02 06:15:00,67.7,65.0,29.90,SE,139,1.0,1.0,91,0.00,,,0.00,WUHU216DAVISVP2,2013-08-02 11:15:00,
2013-08-02 06:20:00,67.7,65.0,29.90,SE,143,0.0,2.0,91,0.00,,,0.00,WUHU216DAVISVP2,2013-08-02 11:20:00,
2013-08-02 06:25:00,67.6,64.9,29.90,SE,143,0.0,2.0,91,0.00,,,0.00,WUHU216DAVISVP2,2013-08-02 11:25:00,
2013-08-02 06:30:00,67.4,64.7,29.90,SE,142,0.0,2.0,91,0.00,,,0.00,WUHU216DAVISVP2,2013-08-02 11:30:00,
2013-08-02 06:35:00,67.3,64.6,29.89,SE,142,0.0,2.0,91,0.00,,,0.00,WUHU216DAVISVP2,2013-08-02 11:35:00,
2013-08-02 06:40:00,67.1,64.4,29.89,SE,142,0.0,1.0,91,0.00,,,0.00,WUHU216DAVISVP2,2013-08-02 11:40:00,
2013-08-02 06:45:00,67.1,64.7,29.90,ENE,77,2.0,2.0,92,0.00,,,0.00,WUHU216DAVISVP2,2013-08-02 11:45:00,
2013-08-02 06:50:00,67.0,64.6,29.89,ENE,77,0.0,2.0,92,0.00,,,0.00,WUHU216DAVISVP2,2013-08-02 11:50:00,
2013-08-02 06:55:00,67.0,64.6,29.89,ENE,77,0.0,2.0,92,0.00,,,0.00,WUHU216DAVISVP2,2013-08-02 11:55:00,
2013-08-02 07:00:00,67.1,64.7,29.88,SE,137,0.0,2.0,92,0.00,,,0.00,WUHU216DAVISVP2,2013-08-02 12:00:00,
2013-08-02 07:05:00,67.1,64.7,29.88,SE,136,0.0,1.0,92,0.00,,,0.00,WUHU216DAVISVP2,2013-08-02 12:05:00,
2013-08-02 07:10:00,67.3,64.9,29.88,SE,136,0.0,0.0,92,0.00,,,0.00,WUHU216DAVISVP2,2013-08-02 12:10:00,
2013-08-02 07:15:00,67.6,65.2,29.88,NE,37,1.0,4.0,92,0.00,,,0.00,WUHU216DAVISVP2,2013-08-02 12:15:00,
2013-08-02 07:20:00,68.2,65.8,29.88,ENE,65,0.0,4.0,92,0.00,,,0.00,WUHU216DAVISVP2,2013-08-02 12:20:00,
2013-08-02 07:25:00,68.8,65.7,29.88,East,87,2.0,3.0,90,0.00,,,0.00,WUHU216DAVISVP2,2013-08-02 12:25:00,
2013-08-02 07:30:00,69.4,66.0,29.89,ESE,103,0.0,3.0,89,0.00,,,0.00,WUHU216DAVISVP2,2013-08-02 12:30:00,
2013-08-02 07:35:00,70.2,66.5,29.89,East,93,2.0,2.0,88,0.00,,,0.00,WUHU216DAVISVP2,2013-08-02 12:35:00,
2013-08-02 07:40:00,70.4,66.3,29.89,ENE,68,1.0,3.0,87,0.00,,,0.00,WUHU216DAVISVP2,2013-08-02 12:40:00,
2013-08-02 07:45:00,70.7,66.6,29.89,SE,129,0.0,3.0,87,0.00,,,0.00,WUHU216DAVISVP2,2013-08-02 12:45:00,
2013-08-02 07:50:00,71.1,66.7,29.89,East,89,1.0,3.0,86,0.00,,,0.00,WUHU216DAVISVP2,2013-08-02 12:50:00,
2013-08-02 07:55:00,71.6,66.9,29.88,ESE,117,0.0,3.0,85,0.00,,,0.00,WUHU216DAVISVP2,2013-08-02 12:55:00,
2013-08-02 08:00:00,72.2,67.1,29.89,SE,126,1.0,3.0,84,0.00,,,0.00,WUHU216DAVISVP2,2013-08-02 13:00:00,
2013-08-02 08:05:00,72.7,67.3,29.89,South,175,1.0,2.0,83,0.00,,,0.00,WUHU216DAVISVP2,2013-08-02 13:05:00,
2013-08-02 08:10:00,73.2,67.4,29.89,ENE,77,1.0,2.0,82,0.00,,,0.00,WUHU216DAVISVP2,2013-08-02 13:10:00,
2013-08-02 08:15:00,73.4,67.3,29.89,ENE,68,1.0,2.0,81,0.00,,,0.00,WUHU216DAVISVP2,2013-08-02 13:15:00,
2013-08-02 08:20:00,73.5,67.3,29.89,ESE,116,0.0,4.0,81,0.00,,,0.00,WUHU216DAVISVP2,2013-08-02 13:20:00,
2013-08-02 08:25:00,73.9,67.4,29.90,ENE,64,3.0,4.0,80,0.00,,,0.00,WUHU216DAVISVP2,2013-08-02 13:25:00,
2013-08-02 08:30:00,74.0,67.4,29.90,East,81,1.0,3.0,80,0.00,,,0.00,WUHU216DAVISVP2,2013-08-02 13:30:00,
2013-08-02 08:35:00,74.1,67.5,29.90,NE,54,3.0,4.0,80,0.00,,,0.00,WUHU216DAVISVP2,2013-08-02 13:35:00,
2013-08-02 08:40:00,74.3,67.5,29.89,NE,53,2.0,4.0,79,0.00,,,0.00,WUHU216DAVISVP2,2013-08-02 13:40:00,
2013-08-02 08:45:00,74.3,67.8,29.90,East,87,0.0,3.0,80,0.00,,,0.00,WUHU216DAVISVP2,2013-08-02 13:45:00,
2013-08-02 08:50:00,74.5,67.7,29.90,South,189,0.0,5.0,79,0.00,,,0.00,WUHU216DAVISVP2,2013-08-02 13:50:00,
2013-08-02 08:55:00,74.9,68.1,29.89,NE,44,3.0,5.0,79,0.00,,,0.00,WUHU216DAVISVP2,2013-08-02 13:55:00,
2013-08-02 09:00:00,74.4,67.5,29.89,East,83,5.0,10.0,79,0.00,,,0.00,WUHU216DAVISVP2,2013-08-02 14:00:00,
2013-08-02 09:05:00,74.3,67.5,29.89,East,93,4.0,10.0,79,0.00,,,0.00,WUHU216DAVISVP2,2013-08-02 14:05:00,
2013-08-02 09:10:00,74.6,68.1,29.90,NE,41,3.0,9.0,80,0.00,,,0.00,WUHU216DAVISVP2,2013-08-02 14:10:00,
2013-08-02 09:15:00,74.9,68.1,29.89,East,88,2.0,9.0,79,0.00,,,0.00,WUHU216DAVISVP2,2013-08-02 14:15:00,
2013-08-02 09:20:00,75.4,68.2,29.90,ENE,59,3.0,6.0,78,0.00,,,0.00,WUHU216DAVISVP2,2013-08-02 14:20:00,
2013-08-02 09:25:00,75.6,68.7,29.90,East,82,2.0,8.0,79,0.00,,,0.00,WUHU216DAVISVP2,2013-08-02 14:25:00,
2013-08-02 09:30:00,76.6,68.6,29.90,ESE,113,2.0,8.0,76,0.00,,,0.00,WUHU216DAVISVP2,2013-08-02 14:30:00,
2013-08-02 09:35:00,76.7,68.7,29.89,East,83,3.0,7.0,76,0.00,,,0.00,WUHU216DAVISVP2,2013-08-02 14:35:00,
2013-08-02 09:40:00,76.9,68.2,29.90,NNE,22,4.0,7.0,74,0.00,,,0.00,WUHU216DAVISVP2,2013-08-02 14:40:00,
2013-08-02 09:45:00,76.8,68.1,29.90,ENE,58,3.0,7.0,74,0.00,,,0.00,WUHU216DAVISVP2,2013-08-02 14:45:00,
2013-08-02 09:50:00,76.8,68.4,29.91,NE,41,2.0,7.0,75,0.00,,,0.00,WUHU216DAVISVP2,2013-08-02 14:50:00,
2013-08-02 09:55:00,77.0,68.3,29.91,ENE,63,2.0,7.0,74,0.00,,,0.00,WUHU216DAVISVP2,2013-08-02 14:55:00,
2013-08-02 10:00:00,78.3,69.1,29.90,NNE,21,1.0,7.0,73,0.00,,,0.00,WUHU216DAVISVP2,2013-08-02 15:00:00,
2013-08-02 10:05:00,78.4,68.4,29.91,East,81,5.0,6.0,71,0.00,,,0.00,WUHU216DAVISVP2,2013-08-02 15:05:00,
2013-08-02 10:10:00,78.5,68.9,29.91,ENE,58,1.0,6.0,72,0.00,,,0.00,WUHU216DAVISVP2,2013-08-02 15:10:00,
2013-08-02 10:15:00,79.2,68.4,29.91,SE,146,1.0,6.0,69,0.00,,,0.00,WUHU216DAVISVP2,2013-08-02 15:15:00,
2013-08-02 10:20:00,79.7,68.4,29.91,NE,51,0.0,6.0,68,0.00,,,0.00,WUHU216DAVISVP2,2013-08-02 15:20:00,
2013-08-02 10:25:00,79.5,68.2,29.92,ENE,57,0.0,6.0,68,0.00,,,0.00,WUHU216DAVISVP2,2013-08-02 15:25:00,
2013-08-02 10:30:00,79.6,68.8,29.92,ENE,71,4.0,6.0,69,0.00,,,0.00,WUHU216DAVISVP2,2013-08-02 15:30:00,
2013-08-02 10:35:00,79.4,68.1,29.91,East,81,1.0,6.0,68,0.00,,,0.00,WUHU216DAVISVP2,2013-08-02 15:35:00,
2013-08-02 10:40:00,79.9,68.6,29.91,SSE,152,3.0,6.0,68,0.00,,,0.00,WUHU216DAVISVP2,2013-08-02 15:40:00,
2013-08-02 10:45:00,80.4,68.7,29.91,SE,124,1.0,6.0,67,0.00,,,0.00,WUHU216DAVISVP2,2013-08-02 15:45:00,
2013-08-02 10:50:00,80.1,67.5,29.92,NE,44,2.0,6.0,65,0.00,,,0.00,WUHU216DAVISVP2,2013-08-02 15:50:00,
2013-08-02 10:55:00,79.8,68.5,29.92,ENE,57,2.0,6.0,68,0.00,,,0.00,WUHU216DAVISVP2,2013-08-02 15:55:00,
2013-08-02 11:00:00,79.7,67.1,29.93,NE,56,2.0,5.0,65,0.00,,,0.00,WUHU216DAVISVP2,2013-08-02 16:00:00,
2013-08-02 11:05:00,80.0,67.9,29.93,NE,44,3.0,4.0,66,0.00,,,0.00,WUHU216DAVISVP2,2013-08-02 16:05:00,
2013-08-02 11:10:00,80.2,68.5,29.93,NE,39,4.0,6.0,67,0.00,,,0.00,WUHU216DAVISVP2,2013-08-02 16:10:00,
2013-08-02 11:15:00,79.7,67.1,29.93,NE,41,2.0,6.0,65,0.00,,,0.00,WUHU216DAVISVP2,2013-08-02 16:15:00,
2013-08-02 11:20:00,79.5,66.9,29.93,NE,41,2.0,6.0,65,0.00,,,0.00,WUHU216DAVISVP2,2013-08-02 16:20:00,
2013-08-02 11:25:00,79.3,65.6,29.93,ENE,65,0.0,6.0,63,0.00,,,0.00,WUHU216DAVISVP2,2013-08-02 16:25:00,
2013-08-02 11:30:00,79.8,66.8,29.93,NE,53,2.0,6.0,64,0.00,,,0.00,WUHU216DAVISVP2,2013-08-02 16:30:00,
2013-08-02 11:35:00,80.3,67.3,29.93,East,88,0.0,5.0,64,0.00,,,0.00,WUHU216DAVISVP2,2013-08-02 16:35:00,
2013-08-02 11:40:00,80.9,67.1,29.93,NE,45,3.0,5.0,63,0.00,,,0.00,WUHU216DAVISVP2,2013-08-02 16:40:00,
2013-08-02 11:45:00,81.0,67.0,29.93,ENE,57,2.0,6.0,62,0.00,,,0.00,WUHU216DAVISVP2,2013-08-02 16:45:00,
2013-08-02 11:50:00,81.5,67.0,29.93,SE,129,1.0,6.0,61,0.00,,,0.00,WUHU216DAVISVP2,2013-08-02 16:50:00,
2013-08-02 11:55:00,81.9,66.6,29.93,SW,236,1.0,6.0,60,0.00,,,0.00,WUHU216DAVISVP2,2013-08-02 16:55:00,
2013-08-02 12:00:00,81.6,68.5,29.93,SE,140,0.0,6.0,64,0.00,,,0.00,WUHU216DAVISVP2,2013-08-02 17:00:00,
2013-08-02 12:05:00,82.1,68.5,29.93,East,97,1.0,6.0,63,0.00,,,0.00,WUHU216DAVISVP2,2013-08-02 17:05:00,
2013-08-02 12:10:00,81.7,68.1,29.93,East,87,1.0,6.0,63,0.00,,,0.00,WUHU216DAVISVP2,2013-08-02 17:10:00,
2013-08-02 12:15:00,81.4,68.3,29.92,NE,34,2.0,4.0,64,0.00,,,0.00,WUHU216DAVISVP2,2013-08-02 17:15:00,
2013-08-02 12:20:00,81.0,67.7,29.93,ENE,57,0.0,5.0,64,0.00,,,0.00,WUHU216DAVISVP2,2013-08-02 17:20:00,
2013-08-02 12:25:00,80.6,68.0,29.92,NE,52,0.0,6.0,65,0.00,,,0.00,WUHU216DAVISVP2,2013-08-02 17:25:00,
2013-08-02 12:30:00,80.8,67.7,29.93,SW,226,0.0,6.0,64,0.00,,,0.00,WUHU216DAVISVP2,2013-08-02 17:30:00,
2013-08-02 12:35:00,81.1,67.3,29.93,SE,128,1.0,5.0,63,0.00,,,0.00,WUHU216DAVISVP2,2013-08-02 17:35:00,
2013-08-02 12:40:00,81.4,67.4,29.93,SE,139,2.0,5.0,62,0.00,,,0.00,WUHU216DAVISVP2,2013-08-02 17:40:00,
2013-08-02 12:45:00,81.2,67.2,29.93,South,169,1.0,3.0,62,0.00,,,0.00,WUHU216DAVISVP2,2013-08-02 17:45:00,
2013-08-02 12:50:00,81.0,67.0,29.93,SE,142,2.0,3.0,62,0.00,,,0.00,WUHU216DAVISVP2,2013-08-02 17:50:00,
2013-08-02 12:55:00,80.8,67.3,29.93,SE,142,2.0,4.0,63,0.00,,,0.00,WUHU216DAVISVP2,2013-08-02 17:55:00,
2013-08-02 13:00:00,80.7,67.2,29.93,SSE,159,0.0,4.0,63,0.00,,,0.00,WUHU216DAVISVP2,2013-08-02 18:00:00,
2013-08-02 13:05:00,80.4,66.9,29.93,WSW,243,0.0,4.0,63,0.00,,,0.00,WUHU216DAVISVP2,2013-08-02 18:05:00,
2013-08-02 13:10:00,80.4,66.9,29.93,SSE,161,1.0,5.0,63,0.00,,,0.00,WUHU216DAVISVP2,2013-08-02 18:10:00,
2013-08-02 13:15:00,80.4,66.9,29.93,SE,138,1.0,5.0,63,0.00,,,0.00,WUHU216DAVISVP2,2013-08-02 18:15:00,
2013-08-02 13:20:00,80.5,67.0,29.93,South,188,1.0,5.0,63,0.00,,,0.00,WUHU216DAVISVP2,2013-08-02 18:20:00,
2013-08-02 13:25:00,80.9,66.9,29.93,SSE,159,0.0,4.0,62,0.00,,,0.00,WUHU216DAVISVP2,2013-08-02 18:25:00,
2013-08-02 13:30:00,81.5,67.2,29.93,SSE,153,1.0,4.0,62,0.00,,,0.00,WUHU216DAVISVP2,2013-08-02 18:30:00,
2013-08-02 13:35:00,81.6,67.6,29.94,SE,146,1.0,3.0,62,0.00,,,0.00,WUHU216DAVISVP2,2013-08-02 18:35:00,
2013-08-02 13:40:00,81.9,67.9,29.93,WSW,257,1.0,3.0,62,0.00,,,0.00,WUHU216DAVISVP2,2013-08-02 18:40:00,
2013-08-02 13:45:00,82.5,67.2,29.93,SE,146,1.0,3.0,60,0.00,,,0.00,WUHU216DAVISVP2,2013-08-02 18:45:00,
2013-08-02 13:50:00,83.0,67.9,29.93,SE,136,2.0,4.0,60,0.00,,,0.00,WUHU216DAVISVP2,2013-08-02 18:50:00,
2013-08-02 13:55:00,83.2,67.6,29.93,ENE,65,2.0,4.0,59,0.00,,,0.00,WUHU216DAVISVP2,2013-08-02 18:55:00,
2013-08-02 14:00:00,83.1,67.8,29.92,ENE,71,1.0,4.0,60,0.00,,,0.00,WUHU216DAVISVP2,2013-08-02 19:00:00,
2013-08-02 14:05:00,83.5,68.4,29.92,East,89,1.0,4.0,60,0.00,,,0.00,WUHU216DAVISVP2,2013-08-02 19:05:00,
2013-08-02 14:10:00,83.6,68.0,29.92,East,80,0.0,4.0,59,0.00,,,0.00,WUHU216DAVISVP2,2013-08-02 19:10:00,
2013-08-02 14:15:00,84.2,68.6,29.92,NNW,342,1.0,3.0,59,0.00,,,0.00,WUHU216DAVISVP2,2013-08-02 19:15:00,
2013-08-02 14:20:00,84.2,68.1,29.92,NNE,33,1.0,3.0,58,0.00,,,0.00,WUHU216DAVISVP2,2013-08-02 19:20:00,
2013-08-02 14:25:00,84.6,69.4,29.92,NE,39,3.0,4.0,60,0.00,,,0.00,WUHU216DAVISVP2,2013-08-02 19:25:00,
2013-08-02 14:30:00,84.0,68.4,29.92,NNE,32,2.0,7.0,59,0.00,,,0.00,WUHU216DAVISVP2,2013-08-02 19:30:00,
2013-08-02 14:35:00,83.9,68.3,29.91,ENE,63,5.0,8.0,59,0.00,,,0.00,WUHU216DAVISVP2,2013-08-02 19:35:00,
2013-08-02 14:40:00,83.0,67.9,29.91,North,360,4.0,8.0,60,0.00,,,0.00,WUHU216DAVISVP2,2013-08-02 19:40:00,
2013-08-02 14:45:00,82.6,67.1,29.91,NE,48,3.0,8.0,59,0.00,,,0.00,WUHU216DAVISVP2,2013-08-02 19:45:00,
2013-08-02 14:50:00,83.2,68.1,29.91,NE,53,2.0,7.0,60,0.00,,,0.00,WUHU216DAVISVP2,2013-08-02 19:50:00,
2013-08-02 14:55:00,84.2,68.6,29.90,NNW,345,2.0,7.0,59,0.00,,,0.00,WUHU216DAVISVP2,2013-08-02 19:55:00,
2013-08-02 15:00:00,83.9,68.3,29.90,East,98,4.0,5.0,59,0.00,,,0.00,WUHU216DAVISVP2,2013-08-02 20:00:00,
2013-08-02 15:05:00,84.8,68.4,29.90,East,99,5.0,6.0,58,0.00,,,0.00,WUHU216DAVISVP2,2013-08-02 20:05:00,
2013-08-02 15:10:00,84.7,67.8,29.90,NE,40,4.0,6.0,57,0.00,,,0.00,WUHU216DAVISVP2,2013-08-02 20:10:00,
2013-08-02 15:15:00,84.9,68.2,29.90,SSW,193,0.0,6.0,57,0.00,,,0.00,WUHU216DAVISVP2,2013-08-02 20:15:00,
2013-08-02 15:20:00,85.7,69.0,29.90,WSW,255,0.0,6.0,57,0.00,,,0.00,WUHU216DAVISVP2,2013-08-02 20:20:00,
2013-08-02 15:25:00,86.5,69.2,29.90,SSW,198,1.0,6.0,56,0.00,,,0.00,WUHU216DAVISVP2,2013-08-02 20:25:00,
2013-08-02 15:30:00,86.9,68.5,29.90,ESE,113,1.0,4.0,54,0.00,,,0.00,WUHU216DAVISVP2,2013-08-02 20:30:00,
2013-08-02 15:35:00,87.0,68.9,29.90,West,280,0.0,4.0,55,0.00,,,0.00,WUHU216DAVISVP2,2013-08-02 20:35:00,
2013-08-02 15:40:00,87.7,68.7,29.90,East,100,4.0,7.0,53,0.00,,,0.00,WUHU216DAVISVP2,2013-08-02 20:40:00,
2013-08-02 15:45:00,86.8,68.9,29.90,North,10,2.0,7.0,55,0.00,,,0.00,WUHU216DAVISVP2,2013-08-02 20:45:00,
2013-08-02 15:50:00,87.0,68.3,29.90,NE,51,4.0,7.0,54,0.00,,,0.00,WUHU216DAVISVP2,2013-08-02 20:50:00,
2013-08-02 15:55:00,86.9,68.8,29.90,SSE,162,3.0,6.0,55,0.00,,,0.00,WUHU216DAVISVP2,2013-08-02 20:55:00,
2013-08-02 16:00:00,86.8,68.9,29.90,NE,45,2.0,6.0,55,0.00,,,0.00,WUHU216DAVISVP2,2013-08-02 21:00:00,
2013-08-02 16:05:00,86.2,68.7,29.90,NE,44,4.0,6.0,56,0.00,,,0.00,WUHU216DAVISVP2,2013-08-02 21:05:00,
2013-08-02 16:10:00,84.1,68.7,29.90,NNE,21,3.0,11.0,60,0.00,,,0.00,WUHU216DAVISVP2,2013-08-02 21:10:00,
2013-08-02 16:15:00,83.4,67.8,29.90,East,96,7.0,11.0,59,0.00,,,0.00,WUHU216DAVISVP2,2013-08-02 21:15:00,
2013-08-02 16:20:00,82.9,68.3,29.90,ENE,60,3.0,10.0,61,0.00,,,0.00,WUHU216DAVISVP2,2013-08-02 21:20:00,
2013-08-02 16:25:00,83.2,68.1,29.91,NNE,13,4.0,9.0,60,0.00,,,0.00,WUHU216DAVISVP2,2013-08-02 21:25:00,
2013-08-02 16:30:00,83.2,68.1,29.91,East,85,6.0,8.0,60,0.00,,,0.00,WUHU216DAVISVP2,2013-08-02 21:30:00,
2013-08-02 16:35:00,83.5,68.4,29.91,ENE,61,2.0,7.0,60,0.00,,,0.00,WUHU216DAVISVP2,2013-08-02 21:35:00,
2013-08-02 16:40:00,84.1,68.5,29.91,ENE,65,1.0,7.0,59,0.00,,,0.00,WUHU216DAVISVP2,2013-08-02 21:40:00,
2013-08-02 16:45:00,84.5,69.4,29.91,SE,146,0.0,7.0,60,0.00,,,0.00,WUHU216DAVISVP2,2013-08-02 21:45:00,
2013-08-02 16:50:00,84.4,68.8,29.91,NNE,25,3.0,5.0,59,0.00,,,0.00,WUHU216DAVISVP2,2013-08-02 21:50:00,
2013-08-02 16:55:00,83.7,68.1,29.91,NE,56,7.0,7.0,59,0.00,,,0.00,WUHU216DAVISVP2,2013-08-02 21:55:00,
2013-08-02 17:00:00,83.0,67.9,29.91,NE,56,6.0,8.0,60,0.00,,,0.00,WUHU216DAVISVP2,2013-08-02 22:00:00,
2013-08-02 17:05:00,83.0,68.9,29.92,East,97,4.0,8.0,62,0.00,,,0.00,WUHU216DAVISVP2,2013-08-02 22:05:00,
2013-08-02 17:10:00,83.0,68.9,29.92,East,80,4.0,8.0,62,0.00,,,0.00,WUHU216DAVISVP2,2013-08-02 22:10:00,
2013-08-02 17:15:00,82.9,68.3,29.92,ENE,72,2.0,7.0,61,0.00,,,0.00,WUHU216DAVISVP2,2013-08-02 22:15:00,
2013-08-02 17:20:00,82.9,68.3,29.92,NW,325,1.0,7.0,61,0.00,,,0.00,WUHU216DAVISVP2,2013-08-02 22:20:00,
2013-08-02 17:25:00,83.1,69.0,29.92,ENE,70,1.0,6.0,62,0.00,,,0.00,WUHU216DAVISVP2,2013-08-02 22:25:00,
2013-08-02 17:30:00,83.0,68.4,29.92,ENE,65,4.0,7.0,61,0.00,,,0.00,WUHU216DAVISVP2,2013-08-02 22:30:00,
2013-08-02 17:35:00,82.9,67.8,29.92,ENE,68,1.0,7.0,60,0.00,,,0.00,WUHU216DAVISVP2,2013-08-02 22:35:00,
2013-08-02 17:40:00,82.7,68.1,29.92,NE,38,4.0,13.0,61,0.00,,,0.00,WUHU216DAVISVP2,2013-08-02 22:40:00,
2013-08-02 17:45:00,81.6,68.0,29.92,ENE,57,5.0,13.0,63,0.00,,,0.00,WUHU216DAVISVP2,2013-08-02 22:45:00,
2013-08-02 17:50:00,80.9,67.6,29.92,East,97,3.0,13.0,64,0.00,,,0.00,WUHU216DAVISVP2,2013-08-02 22:50:00,
2013-08-02 17:55:00,80.6,68.0,29.92,East,79,4.0,13.0,65,0.00,,,0.00,WUHU216DAVISVP2,2013-08-02 22:55:00,
2013-08-02 18:00:00,80.8,68.2,29.91,ENE,61,3.0,12.0,65,0.00,,,0.00,WUHU216DAVISVP2,2013-08-02 23:00:00,
2013-08-02 18:05:00,81.2,68.1,29.91,East,87,9.0,12.0,64,0.00,,,0.00,WUHU216DAVISVP2,2013-08-02 23:05:00,
2013-08-02 18:10:00,81.3,68.7,29.90,ENE,60,9.0,11.0,65,0.00,,,0.00,WUHU216DAVISVP2,2013-08-02 23:10:00,
2013-08-02 18:15:00,81.7,68.1,29.91,ENE,65,5.0,11.0,63,0.00,,,0.00,WUHU216DAVISVP2,2013-08-02 23:15:00,
2013-08-02 18:20:00,81.3,68.0,29.90,ENE,65,5.0,10.0,64,0.00,,,0.00,WUHU216DAVISVP2,2013-08-02 23:20:00,
2013-08-02 18:25:00,81.3,68.2,29.90,NE,49,4.0,10.0,64,0.00,,,0.00,WUHU216DAVISVP2,2013-08-02 23:25:00,
2013-08-02 18:30:00,81.2,68.1,29.90,NE,40,2.0,9.0,64,0.00,,,0.00,WUHU216DAVISVP2,2013-08-02 23:30:00,
2013-08-02 18:35:00,81.4,68.3,29.90,ENE,58,3.0,9.0,64,0.00,,,0.00,WUHU216DAVISVP2,2013-08-02 23:35:00,
2013-08-02 18:40:00,81.4,67.8,29.90,NE,41,5.0,7.0,63,0.00,,,0.00,WUHU216DAVISVP2,2013-08-02 23:40:00,
2013-08-02 18:45:00,81.3,68.2,29.91,East,84,4.0,7.0,64,0.00,,,0.00,WUHU216DAVISVP2,2013-08-02 23:45:00,
2013-08-02 18:50:00,81.5,68.4,29.91,SW,219,1.0,7.0,64,0.00,,,0.00,WUHU216DAVISVP2,2013-08-02 23:50:00,
2013-08-02 18:55:00,81.9,68.1,29.91,ENE,59,3.0,7.0,63,0.00,,,0.00,WUHU216DAVISVP2,2013-08-02 23:55:00,
2013-08-02 19:00:00,81.6,68.2,29.91,ENE,57,2.0,7.0,64,0.00,,,0.00,WUHU216DAVISVP2,2013-08-03 00:00:00,
2013-08-02 19:05:00,81.1,68.5,29.91,ENE,77,3.0,7.0,65,0.00,,,0.00,WUHU216DAVISVP2,2013-08-03 00:05:00,
2013-08-02 19:10:00,81.5,68.9,29.92,ENE,67,0.0,7.0,65,0.00,,,0.00,WUHU216DAVISVP2,2013-08-03 00:10:00,
2013-08-02 19:15:00,82.3,68.7,29.91,SE,128,1.0,6.0,63,0.00,,,0.00,WUHU216DAVISVP2,2013-08-03 00:15:00,
2013-08-02 19:20:00,82.8,68.7,29.92,ENE,68,3.0,6.0,62,0.00,,,0.00,WUHU216DAVISVP2,2013-08-03 00:20:00,
2013-08-02 19:25:00,82.8,68.7,29.91,NE,41,2.0,5.0,62,0.00,,,0.00,WUHU216DAVISVP2,2013-08-03 00:25:00,
2013-08-02 19:30:00,82.2,68.6,29.91,ENE,76,2.0,5.0,63,0.00,,,0.00,WUHU216DAVISVP2,2013-08-03 00:30:00,
2013-08-02 19:35:00,81.4,68.3,29.92,ENE,68,3.0,8.0,64,0.00,,,0.00,WUHU216DAVISVP2,2013-08-03 00:35:00,
2013-08-02 19:40:00,81.1,68.5,29.92,ENE,61,3.0,8.0,65,0.00,,,0.00,WUHU216DAVISVP2,2013-08-03 00:40:00,
2013-08-02 19:45:00,81.0,68.4,29.92,ENE,65,3.0,8.0,65,0.00,,,0.00,WUHU216DAVISVP2,2013-08-03 00:45:00,
2013-08-02 19:50:00,80.6,68.4,29.92,ENE,76,2.0,8.0,66,0.00,,,0.00,WUHU216DAVISVP2,2013-08-03 00:50:00,
2013-08-02 19:55:00,80.1,68.0,29.93,ENE,66,7.0,8.0,66,0.00,,,0.00,WUHU216DAVISVP2,2013-08-03 00:55:00,
2013-08-02 20:00:00,79.6,67.9,29.93,NE,50,4.0,10.0,67,0.00,,,0.00,WUHU216DAVISVP2,2013-08-03 01:00:00,
2013-08-02 20:05:00,79.2,67.3,29.93,ENE,63,5.0,10.0,67,0.00,,,0.00,WUHU216DAVISVP2,2013-08-03 01:05:00,
2013-08-02 20:10:00,79.0,67.3,29.93,ENE,60,4.0,9.0,67,0.00,,,0.00,WUHU216DAVISVP2,2013-08-03 01:10:00,
2013-08-02 20:15:00,78.9,67.4,29.93,SE,139,1.0,8.0,68,0.00,,,0.00,WUHU216DAVISVP2,2013-08-03 01:15:00,
2013-08-02 20:20:00,78.7,67.5,29.93,SE,124,1.0,7.0,68,0.00,,,0.00,WUHU216DAVISVP2,2013-08-03 01:20:00,
2013-08-02 20:25:00,78.4,67.2,29.93,ENE,57,2.0,5.0,68,0.00,,,0.00,WUHU216DAVISVP2,2013-08-03 01:25:00,
2013-08-02 20:30:00,77.9,67.1,29.94,NE,40,2.0,6.0,69,0.00,,,0.00,WUHU216DAVISVP2,2013-08-03 01:30:00,
2013-08-02 20:35:00,77.5,66.3,29.95,NE,39,8.0,10.0,68,0.00,,,0.00,WUHU216DAVISVP2,2013-08-03 01:35:00,
2013-08-02 20:40:00,76.8,65.7,29.95,NE,41,5.0,15.0,68,0.00,,,0.00,WUHU216DAVISVP2,2013-08-03 01:40:00,
2013-08-02 20:45:00,76.3,64.5,29.95,ENE,57,6.0,15.0,67,0.00,,,0.00,WUHU216DAVISVP2,2013-08-03 01:45:00,
2013-08-02 20:50:00,75.9,64.8,29.96,NE,34,5.0,14.0,68,0.00,,,0.00,WUHU216DAVISVP2,2013-08-03 01:50:00,
2013-08-02 20:55:00,75.6,64.5,29.96,ENE,58,4.0,15.0,68,0.00,,,0.00,WUHU216DAVISVP2,2013-08-03 01:55:00,
2013-08-02 21:00:00,75.3,64.6,29.96,NE,47,4.0,15.0,69,0.00,,,0.00,WUHU216DAVISVP2,2013-08-03 02:00:00,
2013-08-02 21:05:00,74.9,65.1,29.97,NE,41,10.0,13.0,71,0.00,,,0.00,WUHU216DAVISVP2,2013-08-03 02:05:00,
2013-08-02 21:10:00,74.6,65.2,29.97,ENE,65,3.0,13.0,72,0.00,,,0.00,WUHU216DAVISVP2,2013-08-03 02:10:00,
2013-08-02 21:15:00,74.3,64.9,29.97,NE,45,4.0,10.0,72,0.00,,,0.00,WUHU216DAVISVP2,2013-08-03 02:15:00,
2013-08-02 21:20:00,74.1,65.1,29.97,NE,44,6.0,10.0,73,0.00,,,0.00,WUHU216DAVISVP2,2013-08-03 02:20:00,
2013-08-02 21:25:00,73.9,64.9,29.98,ENE,65,5.0,10.0,73,0.00,,,0.00,WUHU216DAVISVP2,2013-08-03 02:25:00,
2013-08-02 21:30:00,73.6,64.6,29.98,NE,34,5.0,11.0,73,0.00,,,0.00,WUHU216DAVISVP2,2013-08-03 02:30:00,
2013-08-02 21:35:00,73.3,64.3,29.98,NE,52,3.0,11.0,73,0.00,,,0.00,WUHU216DAVISVP2,2013-08-03 02:35:00,
2013-08-02 21:40:00,73.0,64.0,29.99,East,85,8.0,12.0,73,0.00,,,0.00,WUHU216DAVISVP2,2013-08-03 02:40:00,
2013-08-02 21:45:00,72.7,63.3,29.99,NNE,32,4.0,12.0,72,0.00,,,0.00,WUHU216DAVISVP2,2013-08-03 02:45:00,
2013-08-02 21:50:00,72.5,63.4,29.99,NE,47,3.0,12.0,73,0.00,,,0.00,WUHU216DAVISVP2,2013-08-03 02:50:00,
2013-08-02 21:55:00,72.0,62.7,29.99,NNW,336,9.0,15.0,72,0.00,,,0.00,WUHU216DAVISVP2,2013-08-03 02:55:00,
2013-08-02 22:00:00,71.4,62.5,29.99,NNE,25,5.0,16.0,73,0.00,,,0.00,WUHU216DAVISVP2,2013-08-03 03:00:00,
2013-08-02 22:05:00,71.2,62.6,29.99,ENE,63,4.0,16.0,74,0.00,,,0.00,WUHU216DAVISVP2,2013-08-03 03:05:00,
2013-08-02 22:10:00,70.9,62.0,30.00,North,354,11.0,15.0,73,0.00,,,0.00,WUHU216DAVISVP2,2013-08-03 03:10:00,
2013-08-02 22:15:00,70.5,62.0,30.00,NE,51,7.0,15.0,74,0.00,,,0.00,WUHU216DAVISVP2,2013-08-03 03:15:00,
2013-08-02 22:20:00,70.2,61.7,30.00,East,82,7.0,15.0,74,0.00,,,0.00,WUHU216DAVISVP2,2013-08-03 03:20:00,
2013-08-02 22:25:00,70.0,61.8,30.01,NE,56,5.0,15.0,75,0.00,,,0.00,WUHU216DAVISVP2,2013-08-03 03:25:00,
2013-08-02 22:30:00,69.9,61.2,30.00,ENE,77,9.0,15.0,74,0.00,,,0.00,WUHU216DAVISVP2,2013-08-03 03:30:00,
2013-08-02 22:35:00,69.7,61.2,30.00,NE,43,4.0,14.0,74,0.00,,,0.00,WUHU216DAVISVP2,2013-08-03 03:35:00,
2013-08-02 22:40:00,69.6,61.1,30.01,NE,41,5.0,14.0,74,0.00,,,0.00,WUHU216DAVISVP2,2013-08-03 03:40:00,
2013-08-02 22:45:00,69.5,61.0,30.01,NE,53,4.0,14.0,74,0.00,,,0.00,WUHU216DAVISVP2,2013-08-03 03:45:00,
2013-08-02 22:50:00,69.4,60.9,30.01,NE,56,5.0,13.0,74,0.00,,,0.00,WUHU216DAVISVP2,2013-08-03 03:50:00,
2013-08-02 22:55:00,69.2,60.2,30.01,ENE,57,6.0,15.0,73,0.00,,,0.00,WUHU216DAVISVP2,2013-08-03 03:55:00,
2013-08-02 23:00:00,69.2,60.7,30.00,NE,49,1.0,15.0,74,0.00,,,0.00,WUHU216DAVISVP2,2013-08-03 04:00:00,
2013-08-02 23:01:00,69.2,60.7,30.00,ENE,57,1.0,15.0,74,0.00,,,0.00,WUHU216DAVISVP2,2013-08-03 04:01:00,
2013-08-02 23:06:00,69.1,60.6,30.01,ENE,75,11.0,13.0,74,0.00,,,0.00,WUHU216DAVISVP2,2013-08-03 04:06:00,
2013-08-02 23:11:00,69.0,60.5,30.00,NE,43,5.0,13.0,74,0.00,,,0.00,WUHU216DAVISVP2,2013-08-03 04:11:00,
2013-08-02 23:16:00,68.9,60.4,30.00,NNE,31,3.0,12.0,74,0.00,,,0.00,WUHU216DAVISVP2,2013-08-03 04:16:00,
2013-08-02 23:21:00,68.8,60.3,30.01,ENE,65,4.0,11.0,74,0.00,,,0.00,WUHU216DAVISVP2,2013-08-03 04:21:00,
2013-08-02 23:26:00,68.6,60.5,30.01,NE,44,2.0,14.0,75,0.00,,,0.00,WUHU216DAVISVP2,2013-08-03 04:26:00,
2013-08-02 23:31:00,68.6,60.5,30.01,ENE,65,9.0,14.0,75,0.00,,,0.00,WUHU216DAVISVP2,2013-08-03 04:31:00,
2013-08-02 23:36:00,68.5,60.8,30.01,ENE,57,6.0,12.0,76,0.00,,,0.00,WUHU216DAVISVP2,2013-08-03 04:36:00,
2013-08-02 23:42:00,68.4,60.7,30.02,NE,53,3.0,12.0,76,0.00,,,0.00,WUHU216DAVISVP2,2013-08-03 04:42:00,
2013-08-02 23:47:00,68.3,60.9,30.02,ENE,62,1.0,9.0,77,0.00,,,0.00,WUHU216DAVISVP2,2013-08-03 04:47:00,
2013-08-02 23:52:00,68.3,60.9,30.02,NE,45,3.0,7.0,77,0.00,,,0.00,WUHU216DAVISVP2,2013-08-03 04:52:00,
2013-08-02 23:57:00,68.3,60.9,30.03,NE,56,4.0,6.0,77,0.00,,,0.00,WUHU216DAVISVP2,2013-08-03 04:57:00,